Вернуться в каталог

STARLINK-2101

АктивенСвязьVLEO
NORAD 47381·PAYLOAD·🇺🇸 United States

Запущен Jan 20, 2021 с Cape Canaveral Space Force Station

Loading…

Ближайшие Пролёты (ближайшие 24 часа)

TLE

СвежийSource: CelesTrak SupGP

Эпоха: Sep 15, 2026, 00:58 UTC

1 47381C 21005AJ  26258.04076389 -.00010801  00000+0 -32462-3 0  2580
2 47381  53.1615 236.1665 0001218  86.5681  93.6827 15.33857055    19

Отслеживайте STARLINK-2101 в реальном времени с AllMySat

Download on the App Store